[[{"header":{"parameterUnit":"m.s-1","parameterCategory":1,"la1":30.2991,"la2":30.254,"lo1":-89.0895,"lo2":-89.0444,"dy":0.0017,"dx":0.0017,"nx":28,"ny":28,"refTime":"2023-09-20T03:00:00:Z","depth":0,"parameterNumber":2,"parameterNumberName":"U-component_of_WINDS"},"data":[0,0,0,0,0,0,0,0,0,0,0,0,0,0,0,0,0,0,0,0,0,0,0,0,0,0,0,0,0,0,0,0,0,0,0,0,0,0,0,0,0,0,0,0,0,0,0,0,0,0,0,0,0,0,0,0,0,0,-5.6157,-5.6158,0,-5.627,-5.6272,-5.6273,-5.6161,-5.6156,-5.6152,-5.6148,-5.6264,-5.6271,-5.6278,0,0,0,0,0,0,0,0,0,0,0,0,0,-5.5842,-5.5849,-5.6157,-5.6158,-5.616,-5.627,-5.6272,-5.6273,-5.6161,-5.6156,-5.6151,-5.6146,-5.6261,-5.627,-5.6279,0,0,0,0,0,0,0,0,0,0,0,0,0,-5.597,-5.5851,-5.6157,-5.6117,-5.6115,-5.627,-5.6272,-5.6274,-5.6162,-5.6156,-5.6149,-5.6143,-5.6259,-5.6269,-5.628,-5.6479,0,0,-5.6313,-5.6317,0,0,0,0,0,0,0,0,-5.5963,-5.5982,-5.6122,-5.612,-5.6118,-5.6195,-5.6203,-5.6343,-5.6164,-5.6144,-5.6147,-5.614,-5.6246,-5.6257,-5.6293,-5.6485,-5.649,-5.6314,-5.632,-5.6325,-5.6328,0,0,0,0,0,0,0,-5.5954,-5.5976,-5.6202,-5.6124,-5.6122,-5.6094,-5.6104,-5.6229,-5.6231,-5.6146,-5.6138,-5.6153,-5.6244,-5.6283,-5.6295,-5.6492,-5.6313,-5.6323,-5.633,-5.6334,-5.685,-5.6857,0,0,0,0,0,0,-5.595,-5.5969,-5.6198,-5.6205,-5.6022,-5.6105,-5.6117,-5.6177,-5.6229,-5.6231,-5.6158,-5.6147,-5.6268,-5.6283,-5.6299,-5.6534,-5.6325,-5.6335,-5.6341,-5.6843,-5.6852,-5.686,0,0,0,0,0,0,-5.5943,-5.5971,-5.6194,-5.6085,-5.6111,-5.6117,-5.6185,-5.6182,-5.6221,-5.6239,-5.6239,-5.6198,-5.6263,-5.6284,-5.6435,-5.6536,-5.634,-5.635,-5.6835,-5.6846,-5.6856,-5.7007,0,0,0,0,0,0,-5.5935,-5.597,-5.6046,-5.6088,-5.6118,-5.6328,-5.6192,-5.6189,-5.6241,-5.6227,-5.6276,-5.6278,-5.626,-5.6419,-5.6446,-5.6548,-5.6358,-5.6826,-5.684,-5.6852,-5.6993,-5.7022,-5.7047,0,0,0,0,0,-5.5924,-5.6084,-5.605,-5.6078,-5.6213,-5.6334,-5.6351,-5.6327,-5.6249,-5.6325,-5.6336,-5.6277,-5.6522,-5.6436,-5.6464,-5.6572,-5.6819,-5.6836,-5.6851,-5.6981,-5.7016,-5.7046,0,0,0,0,0,0,-5.6054,-5.6089,-5.6052,-5.623,-5.628,-5.6315,-5.641,-5.6365,-5.6438,-5.6422,-5.6389,-5.6401,-5.656,-5.6581,-5.6485,-5.6767,-5.6658,-5.6681,-5.6747,-5.678,-5.6806,-5.6797,-5.6367,0,0,0,0,0,-5.6104,-5.62,-5.6225,-5.638,-5.6407,-5.6405,-5.6457,-5.6434,-5.6484,-5.6505,-5.6526,-5.6578,-5.6665,-5.6724,-5.6807,-5.6997,-5.7005,-5.7084,-5.7111,-5.7133,-5.7152,-5.7252,-5.7287,-5.6913,-5.6913,-5.6913,0,0,-5.6207,-5.6238,-5.63,-5.6407,-5.6443,-5.6542,-5.6423,-5.6534,-5.6607,-5.6521,-5.6664,-5.6683,-5.6738,-5.6909,-5.6985,-5.6931,-5.7258,-5.7154,-5.7171,-5.7178,-5.7273,-5.7308,-5.7339,-5.6924,-5.6922,-5.692,0,0,-5.6445,-5.6479,-5.6611,-5.6649,-5.6705,-5.6702,-5.6734,-5.6777,-5.6785,-5.6929,-5.6866,-5.6953,-5.7106,-5.7147,-5.7188,-5.7441,-5.7388,-5.7469,-5.7608,-5.7706,-5.7735,-5.7761,-5.7849,-5.7882,-5.7489,-5.749,-5.749,0,-5.6565,-5.6713,-5.6684,-5.6799,-5.6847,-5.6775,-5.6907,-5.6946,-5.7026,-5.7061,-5.6999,-5.7189,-5.7221,-5.7399,-5.7461,-5.7498,-5.7532,-5.7462,-5.7733,-5.7759,-5.7783,-5.7866,-5.79,-5.7499,-5.7498,-5.7497,-5.7496,0,-5.6857,-5.6961,-5.7061,-5.7139,-5.7199,-5.7322,-5.7312,-5.7376,-5.7348,-5.7352,-5.7498,-5.7534,-5.7621,-5.7663,-5.7637,-5.7838,-5.7802,-5.7738,-5.7627,-5.7828,-5.7906,-5.7938,-5.7512,-5.7509,-5.7506,-5.7504,0,0,-5.7179,-5.724,-5.7277,-5.7311,-5.7367,-5.7446,-5.7566,-5.7652,-5.7706,-5.7764,-5.7863,-5.7994,-5.7935,-5.7981,-5.796,-5.8046,-5.8242,-5.7971,-5.7972,-5.8018,-5.8463,-5.8509,-5.8546,-5.8208,-5.8214,-5.8219,-5.8457,0,-5.7416,-5.7624,-5.7602,-5.7799,-5.7893,-5.7826,-5.793,-5.7975,-5.7983,-5.8063,-5.8071,-5.8163,-5.808,-5.8107,-5.819,-5.8201,-5.833,-5.8184,-5.8298,-5.8302,-5.8284,-5.8587,-5.8637,-5.886,-5.8488,-5.8493,-5.8497,0,-5.7721,-5.7789,-5.7996,-5.8036,-5.8075,-5.8169,-5.8244,-5.8323,-5.8373,-5.8372,-5.8424,-5.8387,-5.8507,-5.8396,-5.856,-5.846,-5.8506,-5.8519,-5.8527,-5.8534,-5.841,-5.8601,-5.893,-5.8963,-5.8545,-5.8541,-5.8538,0,-5.7931,-5.8075,-5.8216,-5.8248,-5.83,-5.8367,-5.8392,-5.8435,-5.8488,-5.8554,-5.8588,-5.8668,-5.8711,-5.8774,-5.8759,-5.8681,-5.8926,-5.8815,-5.8927,-5.8928,-5.898,-5.8976,-5.9319,-5.9015,-5.9014,-5.9013,-5.9013,0,-5.8197,-5.8325,-5.8311,-5.8398,-5.854,-5.8514,-5.8654,-5.8671,-5.871,-5.8798,-5.8746,-5.883,-5.8807,-5.889,-5.888,-5.9016,-5.9037,-5.9038,-5.9033,-5.9042,-5.9041,-5.9069,-5.9052,-5.9022,-5.902,-5.9019,-5.9017,0,-5.8455,-5.8451,-5.86,-5.8637,-5.8649,-5.8752,-5.8783,-5.8864,-5.8868,-5.898,-5.9005,-5.901,-5.9105,-5.9097,-5.9205,-5.9198,-5.9365,-5.9343,-5.9348,-5.9342,-5.9454,-5.9443,-5.9825,-5.9873,-5.954,-5.9543,-5.9546,0,-5.8623,-5.872,-5.8767,-5.8823,-5.8852,-5.8942,-5.8995,-5.8973,-5.903,-5.9094,-5.9168,-5.9258,-5.9329,-5.9484,-5.9497,-5.9579,-5.9557,-5.9685,-5.9568,-5.9573,-5.9556,-5.9549,-5.9558,-5.9707,-5.9711,-5.9714,-5.9716,0,-5.8922,-5.8915,-5.8993,-5.9071,-5.9136,-5.9196,-5.9251,-5.9299,-5.9283,-5.935,-5.9446,-5.9501,-5.961,-5.97,-5.9778,-5.9802,-5.9757,-5.9753,-5.9783,-5.9791,-5.9789,-5.9789,-5.9407,-5.9744,-5.9741,-5.9739,-5.9738,-5.9737,-5.9138,-5.9221,-5.9266,-5.9355,-5.9394,-5.9446,-5.9524,-5.9537,-5.9617,-5.9703,-5.9686,-5.9794,-5.9841,-5.994,-5.9973,-6.0057,-6.001,-6.0055,-6.0065,-6.0076,-6.0087,-5.9778,-6.0071,-6.007,-6.007,-6.0069,-6.0068,0,-5.9432,-5.9458,-5.954,-5.9618,-5.9688,-5.9639,-5.9697,-5.9759,-5.9854,-5.9902,-5.9972,-6.0083,-6.0169,-6.019,-6.0273,-6.0336,-6.0317,-6.0358,-6.0352,-6.0358,-6.0125,-6.009,-6.0372,-6.0372,-6.0372,-6.0372,-6.0372,-6.0371,-5.9593,-5.9729,-5.9727,-5.9882,-5.9907,-6.0012,-6.0049,-6.0097,-6.0134,-6.026,-6.0331,-6.0344,-6.0381,-6.0466,-6.0543,-6.0546,-6.0578,-6.0628,-6.0623,-6.0405,-6.0374,-6.0345,-6.0312,-6.0636,-6.0636,-6.0848,-6.085,-6.0851]},{"header":{"parameterUnit":"m.s-1","parameterCategory":1,"la1":30.2991,"la2":30.254,"lo1":-89.0895,"lo2":-89.0444,"dy":0.0017,"dx":0.0017,"nx":28,"ny":28,"refTime":"2023-09-20T03:00:00:Z","depth":0,"parameterNumber":3,"parameterNumberName":"V-component_of_WINDS"},"data":[0,0,0,0,0,0,0,0,0,0,0,0,0,0,0,0,0,0,0,0,0,0,0,0,0,0,0,0,0,0,0,0,0,0,0,0,0,0,0,0,0,0,0,0,0,0,0,0,0,0,0,0,0,0,0,0,0,0,1.218,1.218,0,1.2199,1.2199,1.2199,1.2245,1.2246,1.2247,1.2248,1.2265,1.2264,1.2264,0,0,0,0,0,0,0,0,0,0,0,0,0,1.2182,1.2181,1.2179,1.218,1.218,1.2199,1.2199,1.2199,1.2245,1.2246,1.2247,1.2248,1.2265,1.2264,1.2264,0,0,0,0,0,0,0,0,0,0,0,0,0,1.2189,1.2181,1.2179,1.2205,1.2208,1.2199,1.2199,1.2199,1.2245,1.2246,1.2247,1.2249,1.2265,1.2264,1.2264,1.2231,0,0,1.2262,1.2261,0,0,0,0,0,0,0,0,1.2188,1.2189,1.2201,1.2203,1.2206,1.2221,1.2206,1.221,1.2244,1.223,1.2248,1.2249,1.2249,1.225,1.225,1.2232,1.2232,1.2262,1.2261,1.2261,1.2261,0,0,0,0,0,0,0,1.2188,1.2188,1.2187,1.2201,1.2204,1.2215,1.2218,1.2207,1.2231,1.2232,1.2235,1.2237,1.225,1.225,1.2251,1.2233,1.2262,1.2261,1.2261,1.226,1.219,1.2189,0,0,0,0,0,0,1.2184,1.2187,1.2186,1.2188,1.2201,1.2214,1.2217,1.2215,1.2231,1.2235,1.2236,1.2239,1.2251,1.2251,1.2251,1.2215,1.2261,1.226,1.226,1.2192,1.219,1.2188,0,0,0,0,0,0,1.2184,1.2183,1.2186,1.2188,1.219,1.2213,1.221,1.2214,1.2214,1.2234,1.2239,1.2231,1.2252,1.2252,1.2236,1.2216,1.226,1.2259,1.2193,1.2191,1.2189,1.214,0,0,0,0,0,0,1.2183,1.2183,1.217,1.2188,1.2189,1.217,1.2208,1.2214,1.2213,1.2218,1.2231,1.2235,1.2253,1.2237,1.2236,1.2216,1.2259,1.2195,1.2192,1.219,1.2144,1.2136,1.213,0,0,0,0,0,1.2183,1.2155,1.217,1.2169,1.2174,1.2169,1.2169,1.2192,1.2212,1.2199,1.2213,1.2235,1.2219,1.2235,1.2234,1.2213,1.2197,1.2193,1.219,1.2146,1.2138,1.2131,0,0,0,0,0,0,1.2133,1.2157,1.2174,1.215,1.2157,1.2176,1.2161,1.2181,1.2182,1.2186,1.2213,1.2216,1.2196,1.2203,1.2221,1.2183,1.2211,1.2208,1.2179,1.2171,1.2164,1.2162,1.2258,0,0,0,0,0,1.2119,1.2113,1.2135,1.2112,1.2115,1.2137,1.2136,1.2153,1.216,1.2163,1.2175,1.2182,1.2178,1.2175,1.2173,1.2146,1.215,1.2132,1.2125,1.2119,1.2115,1.2103,1.2095,1.2177,1.2177,1.2178,0,0,1.209,1.2103,1.2097,1.2102,1.2109,1.2102,1.2139,1.213,1.2125,1.2162,1.2147,1.2157,1.2166,1.2144,1.2135,1.2149,1.2094,1.2115,1.2111,1.211,1.2098,1.209,1.2083,1.2175,1.2176,1.2176,0,0,1.2033,1.2043,1.2025,1.2033,1.2044,1.206,1.2056,1.2073,1.2081,1.2067,1.2095,1.209,1.2083,1.2089,1.2091,1.204,1.206,1.2039,1.2003,1.1991,1.1984,1.1979,1.196,1.1954,1.2035,1.2035,1.2035,0,1.1995,1.1986,1.2013,1.2003,1.2004,1.204,1.2022,1.2028,1.2037,1.2038,1.2054,1.2048,1.2057,1.2038,1.2026,1.2026,1.2022,1.2036,1.1983,1.1978,1.1973,1.1956,1.1949,1.2032,1.2033,1.2033,1.2033,0,1.1939,1.1933,1.1917,1.1927,1.1928,1.1913,1.1938,1.1935,1.1953,1.1968,1.1954,1.1967,1.1968,1.1965,1.1982,1.1949,1.1958,1.1978,1.2007,1.1962,1.1946,1.194,1.2028,1.2029,1.203,1.2031,0,0,1.1848,1.1876,1.1869,1.1875,1.1892,1.1887,1.1876,1.1879,1.1876,1.1882,1.1873,1.1868,1.1889,1.1891,1.1909,1.1898,1.1858,1.192,1.1921,1.1908,1.1822,1.1806,1.1798,1.1872,1.1871,1.187,1.1822,0,1.1794,1.1776,1.1801,1.1777,1.1772,1.1807,1.1797,1.1807,1.182,1.1818,1.1833,1.183,1.1857,1.1858,1.1849,1.1864,1.1841,1.1868,1.1863,1.1863,1.1858,1.179,1.1771,1.1724,1.1816,1.1815,1.1814,0,1.1728,1.1734,1.1709,1.173,1.1728,1.1719,1.1725,1.1722,1.1734,1.1745,1.1749,1.1772,1.1762,1.1792,1.1779,1.1797,1.1798,1.1805,1.1804,1.1803,1.1834,1.1786,1.171,1.1702,1.1805,1.1805,1.1806,0,1.1664,1.1665,1.1651,1.1655,1.1678,1.1671,1.168,1.1694,1.1695,1.17,1.1701,1.1705,1.1707,1.1709,1.1733,1.1752,1.1717,1.1748,1.1726,1.1725,1.1715,1.1715,1.1637,1.1717,1.1717,1.1717,1.1717,0,1.16,1.1584,1.1622,1.1613,1.1596,1.1627,1.1609,1.1622,1.1635,1.1629,1.166,1.1654,1.1686,1.1684,1.1703,1.1689,1.169,1.1699,1.1703,1.1695,1.1694,1.1694,1.1697,1.1715,1.1716,1.1716,1.1717,0,1.1524,1.1549,1.1536,1.1561,1.1566,1.1553,1.1574,1.1567,1.1584,1.1577,1.1577,1.1604,1.1603,1.1628,1.1631,1.1644,1.1622,1.1634,1.1618,1.1621,1.1597,1.1599,1.1515,1.1506,1.1593,1.1592,1.1591,0,1.1481,1.147,1.1494,1.1493,1.1501,1.1499,1.1501,1.1531,1.1532,1.1546,1.1537,1.154,1.1543,1.154,1.156,1.1564,1.1574,1.1545,1.1575,1.1567,1.1573,1.1573,1.1572,1.1538,1.1537,1.1536,1.1535,0,1.1402,1.1416,1.1418,1.1424,1.1426,1.1432,1.1441,1.1438,1.1472,1.1471,1.1471,1.1474,1.1479,1.1481,1.1489,1.1499,1.1522,1.1527,1.1521,1.1512,1.1503,1.1507,1.16,1.1528,1.1528,1.1529,1.1529,1.153,1.1341,1.1333,1.1349,1.135,1.1361,1.1368,1.1363,1.1381,1.1383,1.139,1.1408,1.1405,1.142,1.1433,1.1441,1.144,1.1455,1.1447,1.1445,1.1442,1.1438,1.1505,1.1442,1.1442,1.1442,1.1443,1.1443,0,1.1263,1.1276,1.1277,1.1289,1.129,1.1315,1.1326,1.1326,1.1323,1.1336,1.1339,1.134,1.1343,1.1364,1.137,1.1365,1.1376,1.1365,1.1365,1.1367,1.1425,1.1428,1.1356,1.1356,1.1356,1.1356,1.1356,1.1356,1.1222,1.121,1.1226,1.122,1.1234,1.1232,1.1237,1.1245,1.1255,1.1255,1.1258,1.1272,1.1289,1.1296,1.13,1.1306,1.1306,1.1291,1.1301,1.1354,1.1363,1.137,1.1374,1.1292,1.1291,1.1244,1.1243,1.1243]}]]